CST,Max TemperatureF,Mean TemperatureF,Min TemperatureF,Max Dew PointF,MeanDew PointF,Min DewpointF,Max Humidity, Mean Humidity, Min Humidity, Max Sea Level PressureIn, Mean Sea Level PressureIn, Min Sea Level PressureIn, Max VisibilityMiles, Mean VisibilityMiles, Min VisibilityMiles, Max Wind SpeedMPH, Mean Wind SpeedMPH, Max Gust SpeedMPH,PrecipitationIn, CloudCover, Events, WindDirDegrees
2012-12-1,80,67,53,63,57,51,93,71,48,30.22,30.16,30.12,10,10,8,7,7,10,0.00,4,,151
2012-12-2,81,71,60,64,61,59,100,75,49,30.25,30.19,30.12,10,6,0,13,6,17,0.00,5,Fog,146
2012-12-3,77,66,54,66,61,55,100,80,60,30.17,30.12,30.06,10,7,0,17,8,23,0.07,7,Fog-Rain,152
2012-12-4,76,69,62,67,64,60,100,87,74,30.18,30.13,30.09,10,9,3,15,6,22,0.25,6,Rain-Thunderstorm,147
2012-12-5,67,62,57,60,56,54,97,83,68,30.21,30.13,30.06,10,10,7,13,6,17,T,7,Rain,15
2012-12-6,64,58,51,59,55,52,100,92,84,30.05,29.97,29.92,10,5,0,7,2,10,0.00,7,Fog,51
2012-12-7,74,62,49,61,55,49,100,81,61,29.98,29.92,29.86,10,4,0,9,2,16,0.00,5,Fog,143
2012-12-8,78,69,59,65,62,58,100,80,60,29.96,29.91,29.86,10,10,4,16,7,21,T,5,,156
2012-12-9,81,69,57,69,64,57,100,77,54,29.96,29.89,29.82,10,7,0,16,8,22,0.00,4,Fog,163
2012-12-10,72,55,37,68,49,30,96,73,50,30.10,29.89,29.74,10,7,1,25,12,31,1.14,6,Rain-Thunderstorm,312
2012-12-11,52,42,31,32,29,23,92,64,35,30.24,30.16,30.08,10,10,10,12,6,16,0.00,0,,10
2012-12-12,56,44,32,32,27,20,89,57,24,30.37,30.30,30.24,10,10,10,10,4,18,0.00,0,,15
2012-12-13,61,44,27,34,28,23,100,63,25,30.40,30.34,30.27,10,10,9,8,1,12,0.00,0,,113
2012-12-14,64,47,30,52,42,28,96,75,53,30.29,30.17,30.04,10,10,9,15,5,17,0.00,4,,133
2012-12-15,76,67,57,65,61,53,93,81,69,30.03,29.95,29.89,10,10,10,17,9,23,0.00,6,,158
2012-12-16,70,65,60,67,62,60,100,94,87,29.91,29.84,29.77,10,7,1,24,6,30,1.64,8,Rain-Thunderstorm,191
2012-12-17,69,57,45,61,51,39,100,68,35,29.94,29.83,29.79,10,9,8,15,6,22,0.00,2,,258
2012-12-18,73,55,37,51,44,37,100,69,38,29.99,29.93,29.89,10,9,2,14,6,20,0.00,0,,158
2012-12-19,77,63,48,70,61,48,100,80,60,29.95,29.84,29.74,10,10,6,18,10,29,T,4,,155
2012-12-20,73,55,37,70,39,20,93,64,35,30.36,30.05,29.73,10,10,3,36,16,45,0.05,2,Rain,288
2012-12-21,59,46,32,33,22,17,76,49,22,30.50,30.41,30.36,10,10,9,13,4,16,0.00,0,,299
2012-12-22,66,48,29,36,30,24,92,57,22,30.40,30.32,30.19,10,10,9,12,3,15,0.00,0,,172
2012-12-23,69,60,50,61,55,40,93,74,54,30.16,30.01,29.90,10,10,4,23,8,28,0.04,6,Rain,155
2012-12-24,71,59,46,63,49,32,100,62,24,29.96,29.88,29.83,10,10,7,13,4,18,0.00,1,,270
2012-12-25,65,52,38,61,51,32,100,81,61,29.91,29.68,29.50,10,8,1,41,11,61,1.72,8,Rain-Thunderstorm,22
2012-12-26,38,34,29,34,31,27,92,81,70,30.21,30.10,29.91,10,10,7,21,9,28,0.00,5,,315
2012-12-27,45,36,26,39,32,26,100,83,65,30.21,30.11,29.97,10,9,5,14,4,16,0.00,5,,92
2012-12-28,60,51,42,59,49,36,100,88,76,30.09,29.87,29.75,10,7,2,23,11,31,0.89,8,Rain,109
2012-12-29,46,38,30,36,28,24,85,65,45,30.47,30.31,30.10,10,10,8,21,10,28,0.00,2,,313
2012-12-30,49,37,25,31,26,23,92,66,39,30.56,30.45,30.33,10,10,9,13,4,17,0.00,0,,75
2012-12-31,60,48,36,56,42,30,86,74,62,30.32,30.16,29.97,10,10,10,18,9,21,T,8,,133